{"data":{"norad_id":46537,"epoch":"2026-09-20T06:00:02.000160Z","epoch_age_seconds":43615,"freshness":"FRESH","line1":"1 46537U 20070F   26263.25002315  .01073743  56207-3  23741-2 0  9998","line2":"2 46537  53.0284 260.0181 0002467  79.9682  10.5536 15.97509518  5800","mean_motion":15.97509518,"eccentricity":0.0002467,"inclination_deg":53.0284,"raan_deg":260.0181,"arg_perigee_deg":79.9682,"mean_anomaly_deg":10.5536,"bstar":0.0023741,"rev_number":580,"period_min":90.140308009107,"perigee_km":279.68814009798,"apogee_km":282.97392162441,"semimajor_km":6659.4680308612,"source":"CELESTRAK","updated_at":"2026-09-20T09:00:38.585215Z"}}